Temperature
18 19 19 19 19 19 19 19 19 19 19 19 19 19 19 19 19 19 18 18 18 18 18 18 18 18 18 18 18 18 18 17 17 17 17 17 17 17 17 17 17 17 17
19 19 19 19 19 19 19 19 19 19 19 19 19 19 19 18 18 18 18 18 18 18 18 18 18 18 18 18 18 18 17 17 17 17 17 17 17 17 17 17 17 17 17
19 19 19 19 19 19 19 19 19 19 19 19 19 18 18 18 18 18 18 18 18 18 18 18 18 18 18 18 18 17 17 17 17 17 17 17 17 17 17 17 17 16 16
19 19 19 19 19 19 19 19 19 19 19 18 18 18 18 18 18 18 18 18 18 18 18 18 18 18 18 18 17 17 17 17 17 17 17 17 17 17 17 17 17 16 16
19 19 19 19 19 19 19 19 19 19 19 18 18 18 18 18 18 18 18 18 18 18 18 18 17 17 17 17 17 17 17 17 17 17 17 17 17 17 17 17 16 16 16
19 19 19 19 19 19 19 19 19 19 19 18 18 18 18 18 18 18 18 18 18 18 18 17 17 17 17 17 17 17 17 17 17 17 17 17 17 17 17 17 17 16 16
20 19 19 19 19 19 19 19 19 19 18 18 18 18 18 18 18 18 18 18 18 18 18 18 17 17 17 17 17 17 17 17 17 17 17 17 17 17 17 17 17 16 16
20 19 19 19 19 19 19 19 19 19 18 18 18 18 18 18 18 18 18 18 18 17 17 17 17 17 17 17 17 17 17 17 17 17 17 17 17 17 17 17 17 16 16
20 19 19 19 19 19 19 19 18 18 18 18 18 18 18 18 18 18 18 18 18 17 17 17 17 17 17 17 17 17 17 17 17 17 17 17 17 17 17 17 17 16 16
20 19 19 19 19 19 19 18 18 18 18 18 18 18 18 18 18 18 18 18 18 17 17 17 17 17 17 17 17 17 17 17 17 17 17 17 17 17 17 17 17 16 16
19 19 19 19 19 19 19 18 18 18 18 18 18 18 18 18 18 18 18 17 17 17 17 17 17 17 17 17 17 17 17 17 17 17 17 17 17 17 17 17 16 16 16
19 19 19 19 19 19 19 19 18 18 18 18 18 18 18 18 18 18 18 18 17 17 17 17 17 17 17 17 17 17 17 17 17 17 17 17 17 17 17 17 17 17 16
20 20 19 19 19 19 19 19 19 18 18 18 18 18 18 18 18 18 18 18 17 17 17 17 17 17 17 17 17 17 17 17 17 17 17 17 17 17 17 17 17 17 17
20 20 19 19 19 19 19 19 19 18 18 18 18 18 18 18 18 18 18 18 17 17 17 17 17 17 17 17 17 17 17 17 17 17 17 17 17 17 17 16 16 16 16
20 20 20 19 19 19 19 19 19 18 18 18 18 18 18 18 18 18 18 18 17 17 17 17 17 17 17 17 17 17 17 17 17 17 17 17 17 17 17 16 16 16 16
20 20 20 19 19 19 19 19 18 18 18 18 18 18 18 18 18 18 18 18 18 17 17 17 17 17 17 17 17 17 17 17 17 17 17 17 17 17 17 16 16 16 16
21 20 20 19 19 19 19 18 18 18 18 18 18 18 18 18 18 18 18 18 18 17 17 17 17 17 17 17 17 17 17 17 17 17 17 17 17 17 17 16 16 16 16
20 20 20 19 19 19 19 18 18 18 18 18 18 18 18 18 18 18 18 18 18 17 17 17 17 17 17 17 17 17 17 17 17 17 17 17 17 17 17 17 16 16 16
21 20 20 19 19 19 19 18 18 18 18 18 18 18 18 18 18 18 18 18 18 18 17 17 17 17 17 17 17 17 17 17 17 17 17 17 17 17 17 17 16 16 16
21 20 20 19 19 19 19 18 18 18 18 18 18 18 18 18 18 18 18 18 18 18 17 17 17 17 17 17 17 17 17 17 17 17 17 17 17 17 17 17 17 16 16
21 20 20 19 19 19 19 18 18 18 18 18 18 18 18 18 18 18 18 18 18 18 18 17 17 17 17 17 17 17 17 17 17 17 17 17 17 17 17 17 17 17 16
21 21 20 20 19 19 19 19 18 18 18 18 18 18 18 18 18 18 18 18 18 18 17 17 17 17 17 17 17 17 17 17 17 17 17 17 17 17 17 17 17 17 16
21 21 20 20 20 19 19 19 18 18 18 18 18 18 18 18 18 18 18 18 18 18 18 17 17 17 17 17 17 17 17 17 17 17 17 17 17 17 17 17 17 17 16
22 21 21 20 20 19 19 19 18 18 18 18 18 18 18 18 18 18 18 17 17 17 17 17 17 17 17 17 17 17 17 17 17 17 17 17 17 17 17 17 17 17 17
22 21 21 20 20 20 19 19 18 18 18 18 18 18 18 18 18 18 17 17 17 17 17 17 17 17 17 17 17 17 17 17 17 17 17 17 17 17 17 17 17 17 17
22 21 21 21 20 20 19 19 19 18 18 18 18 18 18 18 18 17 17 17 17 17 17 17 17 17 17 17 17 17 17 17 17 17 17 17 17 17 17 17 17 17 17
Wind_Speed
5 8 13 14 15 15 15 16 17 17 17 17 17 17 17 16 16 16 15 15 14 14 14 14 14 14 15 15 15 15 16 17 16 17 17 18 18 17 18 17 17 16 17
7 11 15 15 15 15 15 15 16 16 16 16 16 16 16 15 15 15 14 14 13 14 14 14 14 14 15 15 16 16 16 16 16 17 17 17 17 17 17 17 16 15 17
9 11 15 16 15 15 15 15 15 15 15 15 15 15 15 14 14 14 13 13 13 13 13 14 14 14 15 15 15 15 15 16 16 16 16 14 15 16 16 16 16 16 16
10 12 14 16 15 15 14 14 14 14 14 14 14 14 14 13 13 13 13 13 12 12 12 13 14 14 14 15 15 15 15 15 15 15 13 13 13 15 16 15 15 15 15
9 11 14 16 15 15 14 14 14 13 13 13 12 12 12 13 13 13 12 12 12 12 12 13 14 14 14 14 14 14 14 15 14 13 12 12 12 14 15 15 15 15 15
8 11 14 16 15 14 14 13 13 13 12 12 12 11 12 12 12 12 12 12 11 11 12 13 13 13 13 13 13 13 14 14 13 12 11 11 12 14 14 14 14 14 14
7 9 13 15 14 14 13 13 12 12 12 11 11 10 11 11 11 11 11 11 11 11 12 12 12 11 11 11 12 12 12 13 13 12 11 10 11 13 13 13 13 13 13
8 8 12 14 14 13 13 12 12 12 11 10 10 10 10 10 10 10 10 10 10 11 11 11 11 10 10 10 10 11 12 12 12 11 10 9 11 12 13 12 13 13 12
7 7 8 11 12 12 12 11 11 11 10 10 9 9 10 10 9 10 9 10 10 10 10 10 10 10 9 10 10 11 11 12 11 10 9 9 11 12 12 12 13 12 12
6 5 5 7 8 9 10 11 11 10 10 9 9 9 9 9 9 8 8 8 9 9 9 10 9 9 9 9 10 10 11 11 10 9 8 9 11 12 12 12 12 12 12
7 4 4 5 7 8 8 9 9 10 9 8 8 8 7 7 6 6 6 7 8 8 8 8 8 8 8 8 9 10 9 8 9 8 8 10 11 11 12 11 12 12 11
9 7 5 5 6 7 7 7 6 6 7 6 6 7 7 6 5 5 5 6 6 7 7 7 7 7 7 6 7 8 7 7 7 7 8 11 11 10 11 11 11 10 10
9 8 6 5 6 6 4 5 5 5 5 5 6 6 6 4 3 3 3 3 4 5 5 5 6 6 5 5 5 6 7 6 6 7 8 10 11 10 10 11 10 10 10
8 8 7 6 5 6 5 5 5 4 4 4 4 5 5 3 2 2 2 2 3 3 4 4 4 4 4 4 5 5 5 5 6 6 8 10 10 11 11 11 11 10 10
9 9 8 7 6 5 4 4 5 4 5 5 5 5 6 4 3 3 2 2 2 3 3 3 3 3 3 3 3 4 5 5 6 7 8 9 10 11 11 11 11 11 11
10 9 8 8 7 6 4 4 4 6 6 5 5 6 7 6 5 4 3 2 2 3 3 3 2 2 2 2 2 3 4 5 5 6 7 8 10 11 11 11 11 11 11
9 8 8 8 7 7 6 6 5 6 6 5 6 7 8 8 7 5 3 3 3 4 3 2 2 2 2 2 1 2 2 4 5 6 7 7 8 10 11 11 11 11 11
9 9 9 9 9 8 6 6 5 6 6 6 7 7 8 9 9 6 4 4 5 4 3 2 2 2 1 1 1 1 2 3 4 6 6 7 7 8 10 11 11 11 11
10 10 9 8 9 8 7 5 5 5 5 6 7 7 8 9 9 8 5 5 5 4 3 3 2 2 2 2 1 1 1 2 4 5 6 7 8 8 9 10 12 12 12
9 9 9 9 8 7 5 3 3 3 3 5 6 7 8 8 9 8 6 6 6 3 3 2 2 2 2 2 1 0 1 2 3 4 6 6 8 9 9 9 9 10 12
8 9 9 9 8 7 5 4 3 3 3 2 4 7 9 9 9 8 5 5 5 4 5 5 3 3 2 2 2 1 1 1 3 4 4 5 6 8 8 9 9 9 9
10 10 9 10 9 8 6 5 3 2 2 2 3 4 7 8 9 8 7 5 5 4 5 5 4 3 2 3 3 1 1 2 1 3 3 4 5 6 7 9 9 10 10
10 11 10 10 9 8 6 4 3 2 1 1 2 2 4 7 9 9 8 7 6 6 6 6 6 6 4 3 3 3 3 3 1 1 2 3 4 4 5 7 8 9 10
10 9 9 9 8 8 7 6 6 5 4 4 3 3 4 6 7 8 8 8 6 5 6 7 6 5 5 4 3 3 3 3 2 1 1 2 3 4 5 5 7 8 9
8 8 8 8 7 7 8 8 7 5 4 2 2 3 3 3 5 7 7 7 6 6 6 6 6 6 5 5 4 3 3 2 2 3 3 2 1 3 4 5 5 7 9
7 8 8 8 8 7 8 7 7 7 5 4 4 4 3 3 3 5 6 6 6 6 6 7 7 7 7 6 5 4 4 3 4 4 4 3 3 3 3 3 5 6 8
Wind_Direction
148 152 134 124 120 116 113 111 109 108 109 111 114 117 118 118 119 119 117 116 115 114 112 111 112 114 114 115 116 118 120 120 120 119 119 118 116 115 114 112 112 112 112
144 146 137 129 124 120 116 114 112 111 112 113 114 116 117 118 119 118 117 116 115 115 113 112 114 116 116 117 119 119 119 121 121 121 119 119 118 117 115 115 116 117 115
134 141 138 133 129 125 120 116 114 113 114 115 116 117 119 119 119 118 118 117 116 115 115 115 115 118 118 119 120 120 120 120 119 118 116 116 119 120 120 120 119 118 117
133 135 140 137 132 128 125 121 118 117 116 116 116 118 120 120 119 118 118 116 115 116 117 116 118 119 120 122 122 123 121 119 117 114 112 117 123 125 122 121 120 120 119
128 134 141 138 135 132 129 125 123 122 120 118 118 120 120 119 119 120 120 117 115 116 117 117 120 119 120 121 122 123 123 120 117 113 110 114 122 126 124 124 124 123 122
126 138 144 140 138 136 134 130 128 125 123 123 123 123 122 122 121 121 120 117 116 117 117 118 121 120 120 120 122 123 123 122 117 115 115 120 124 128 128 128 127 126 126
131 139 146 143 143 141 139 135 132 129 128 126 125 125 124 123 122 120 119 118 117 117 117 119 120 121 122 122 124 125 126 126 122 118 120 125 129 131 129 129 129 128 128
134 136 147 148 148 146 143 140 137 134 132 131 130 128 124 123 124 122 121 120 119 118 117 119 119 120 119 118 120 123 127 129 130 127 127 130 133 132 131 129 130 132 133
130 130 140 148 149 148 146 144 142 138 136 135 132 129 127 125 125 124 123 123 121 120 120 120 121 120 121 122 123 125 126 127 131 134 135 138 140 138 136 134 135 133 132
124 123 126 131 137 142 146 148 145 141 140 140 137 134 133 130 127 125 123 125 126 126 125 123 119 121 123 123 124 126 126 126 132 137 140 146 146 145 142 141 140 139 137
148 138 134 132 137 141 147 152 147 145 144 140 137 136 124 112 114 120 126 132 132 133 129 125 120 117 118 122 125 126 124 130 140 145 151 154 155 154 150 148 146 145 144
171 170 162 152 151 150 154 145 136 133 134 128 123 118 116 115 117 122 133 139 141 137 132 124 119 110 106 110 120 122 125 137 144 155 163 163 163 163 159 156 153 153 153
174 176 173 166 165 159 144 141 136 131 132 133 131 128 126 117 109 104 106 109 116 116 111 111 105 102 108 118 120 123 133 139 148 162 170 171 172 172 168 167 166 165 165
172 182 176 172 170 169 158 154 153 151 153 155 157 153 143 134 138 134 132 127 105 103 103 103 107 107 112 129 136 139 146 153 162 171 179 182 181 179 178 177 177 178 178
181 185 183 178 176 172 166 171 170 173 176 181 178 179 175 171 177 168 163 157 140 126 124 120 118 113 117 131 152 159 164 169 176 179 186 192 192 187 186 186 188 190 188
189 188 184 183 179 176 178 183 183 185 186 186 192 196 195 191 186 179 179 179 181 166 151 146 137 123 128 140 155 165 173 175 181 185 192 200 201 197 195 196 200 201 198
189 184 185 187 179 183 185 193 195 194 190 192 204 207 203 199 194 187 184 191 199 183 162 140 124 114 126 137 144 176 184 184 185 191 197 203 206 207 208 209 209 210 209
180 181 187 194 184 188 187 191 194 198 195 202 206 208 206 203 198 190 190 202 202 182 168 153 139 125 133 149 173 204 199 199 201 200 202 206 209 213 216 217 217 217 217
184 183 183 191 187 190 189 185 188 195 199 207 208 205 205 203 200 194 198 205 194 179 178 185 157 150 166 185 202 211 213 213 214 209 209 212 212 215 219 226 226 225 224
181 181 183 191 190 184 174 164 175 189 202 204 206 205 204 205 203 199 203 202 183 173 182 179 160 153 165 178 189 213 246 241 223 218 220 218 219 222 224 227 228 229 228
177 181 186 188 187 175 170 176 183 199 202 204 212 206 204 205 203 200 203 193 185 190 197 181 161 165 176 147 123 37 331 259 236 235 226 221 226 227 226 227 228 226 229
185 187 188 191 187 184 185 177 174 173 192 201 214 211 209 207 206 206 199 194 191 192 194 185 167 162 182 170 156 137 315 325 283 238 223 223 228 226 226 228 226 226 227
193 193 195 193 189 186 175 149 127 107 76 154 208 216 220 213 211 208 202 201 197 193 200 198 187 180 194 198 185 163 175 232 287 297 237 227 223 222 230 229 227 227 225
201 194 192 187 184 180 171 174 176 188 203 214 207 216 227 221 220 214 208 205 206 202 204 205 199 192 183 198 203 209 197 173 187 276 294 243 227 227 231 230 230 229 225
193 187 185 179 183 181 182 187 190 204 209 205 202 225 236 230 226 218 212 207 207 209 212 210 199 199 195 197 196 188 194 197 200 207 253 266 251 235 229 228 229 228 227
182 179 177 178 188 187 189 190 194 204 203 201 210 221 231 235 232 222 215 210 212 212 216 214 209 206 207 207 207 196 186 188 199 200 225 241 250 251 232 228 224 227 228
Height
1532 1534 1535 1537 1538 1539 1540 1541 1542 1543 1544 1545 1546 1547 1548 1549 1550 1552 1552 1553 1554 1555 1556 1557 1558 1559 1560 1561 1562 1563 1564 1566 1567 1568 1569 1570 1571 1573 1574 1575 1576 1577 1578
1533 1535 1537 1539 1540 1541 1542 1543 1544 1545 1546 1547 1548 1549 1550 1551 1552 1553 1555 1555 1556 1557 1558 1559 1560 1560 1561 1562 1564 1565 1566 1568 1569 1570 1571 1572 1574 1575 1576 1577 1578 1579 1580
1534 1536 1538 1540 1542 1543 1544 1545 1546 1547 1548 1549 1550 1551 1552 1553 1554 1555 1556 1557 1558 1559 1560 1560 1561 1562 1563 1564 1565 1567 1568 1569 1571 1572 1573 1574 1576 1577 1578 1579 1580 1581 1582
1536 1538 1540 1542 1544 1545 1546 1547 1548 1549 1550 1551 1552 1553 1554 1555 1556 1557 1558 1559 1560 1561 1561 1562 1563 1564 1565 1566 1567 1569 1570 1571 1573 1574 1575 1576 1578 1579 1580 1581 1582 1583 1584
1538 1540 1542 1544 1545 1547 1548 1549 1550 1551 1552 1553 1554 1555 1556 1557 1558 1559 1560 1561 1561 1562 1563 1564 1565 1566 1567 1568 1569 1570 1572 1573 1574 1576 1577 1578 1580 1581 1582 1583 1584 1585 1586
1540 1542 1544 1546 1547 1549 1550 1551 1552 1553 1554 1555 1556 1557 1558 1559 1559 1560 1561 1562 1563 1564 1565 1566 1567 1568 1569 1570 1571 1572 1574 1575 1576 1577 1579 1580 1581 1583 1584 1585 1586 1587 1588
1541 1544 1546 1547 1549 1550 1552 1553 1553 1554 1555 1556 1557 1558 1559 1560 1561 1562 1563 1564 1565 1566 1567 1568 1569 1570 1571 1572 1573 1574 1575 1577 1578 1579 1581 1582 1583 1584 1585 1587 1588 1589 1590
1543 1545 1547 1549 1551 1552 1553 1554 1555 1556 1557 1558 1559 1560 1561 1562 1563 1564 1565 1566 1567 1567 1568 1570 1571 1572 1573 1574 1575 1576 1577 1578 1580 1581 1582 1584 1585 1586 1587 1588 1589 1590 1591
1545 1547 1548 1550 1552 1553 1555 1556 1557 1558 1559 1559 1560 1561 1563 1563 1565 1566 1567 1568 1568 1569 1570 1571 1573 1574 1575 1576 1577 1578 1579 1580 1581 1583 1584 1585 1586 1587 1588 1589 1591 1592 1592
1546 1548 1550 1552 1553 1554 1556 1557 1558 1559 1560 1561 1562 1563 1564 1565 1566 1567 1568 1569 1570 1571 1572 1573 1574 1575 1576 1578 1579 1580 1581 1582 1583 1584 1585 1587 1588 1589 1590 1591 1592 1593 1594
1546 1549 1551 1552 1554 1555 1557 1558 1559 1560 1561 1562 1563 1564 1565 1567 1568 1569 1570 1571 1572 1573 1574 1575 1576 1577 1578 1579 1580 1581 1582 1583 1585 1586 1587 1588 1589 1590 1591 1592 1593 1594 1595
1547 1549 1551 1553 1555 1556 1558 1559 1560 1561 1562 1563 1565 1566 1567 1568 1569 1570 1571 1572 1573 1574 1575 1576 1578 1579 1580 1581 1582 1583 1584 1585 1586 1587 1588 1589 1590 1591 1592 1593 1594 1595 1596
1547 1549 1551 1553 1555 1557 1559 1560 1561 1562 1563 1565 1566 1567 1568 1569 1570 1571 1573 1573 1575 1576 1577 1578 1579 1580 1581 1582 1583 1584 1585 1586 1587 1588 1589 1590 1590 1591 1592 1593 1595 1596 1597
1548 1550 1552 1554 1556 1558 1560 1561 1562 1563 1564 1566 1567 1568 1569 1570 1572 1573 1574 1575 1576 1577 1578 1579 1580 1581 1582 1583 1584 1585 1586 1587 1588 1589 1589 1590 1591 1592 1593 1594 1595 1596 1597
1548 1550 1552 1555 1556 1558 1560 1561 1563 1564 1565 1566 1568 1569 1570 1572 1573 1574 1575 1576 1577 1578 1579 1580 1581 1582 1583 1584 1585 1586 1587 1588 1589 1589 1590 1591 1591 1592 1593 1594 1595 1596 1597
1548 1551 1553 1554 1557 1558 1560 1562 1563 1564 1566 1567 1568 1570 1571 1572 1573 1574 1575 1576 1577 1578 1580 1581 1582 1583 1584 1585 1585 1586 1587 1588 1589 1590 1590 1591 1591 1592 1593 1594 1595 1595 1596
1548 1551 1553 1555 1556 1558 1560 1561 1563 1564 1566 1567 1568 1570 1571 1573 1574 1575 1576 1577 1578 1579 1580 1581 1582 1583 1584 1585 1586 1586 1587 1588 1589 1589 1590 1591 1591 1592 1593 1593 1594 1595 1596
1548 1550 1552 1554 1555 1557 1559 1561 1562 1564 1565 1567 1568 1569 1571 1572 1574 1575 1576 1577 1578 1579 1580 1581 1582 1583 1584 1584 1585 1586 1587 1587 1588 1589 1589 1590 1591 1591 1592 1592 1593 1594 1595
1547 1549 1551 1553 1555 1556 1558 1560 1561 1563 1564 1566 1567 1569 1570 1572 1573 1574 1576 1577 1578 1578 1579 1581 1582 1582 1583 1584 1585 1586 1586 1587 1587 1588 1588 1589 1589 1590 1591 1591 1592 1593 1593
1546 1548 1550 1552 1554 1555 1557 1559 1560 1562 1563 1565 1566 1568 1569 1571 1572 1573 1575 1576 1577 1578 1579 1580 1581 1582 1583 1583 1584 1584 1585 1585 1586 1586 1587 1587 1588 1589 1589 1590 1590 1591 1591
1545 1547 1548 1550 1552 1554 1555 1556 1558 1560 1562 1563 1565 1566 1568 1569 1571 1572 1573 1575 1576 1577 1578 1579 1580 1581 1581 1582 1583 1583 1583 1583 1584 1584 1585 1585 1586 1587 1587 1588 1588 1589 1590
1543 1545 1547 1548 1550 1552 1554 1555 1557 1559 1560 1561 1563 1565 1566 1567 1569 1570 1572 1573 1574 1575 1576 1578 1578 1579 1580 1581 1581 1581 1581 1582 1581 1582 1583 1583 1584 1584 1585 1585 1586 1587 1588
1540 1542 1545 1546 1549 1551 1553 1554 1555 1557 1558 1559 1561 1562 1564 1565 1567 1568 1570 1571 1572 1573 1574 1575 1576 1577 1578 1579 1580 1581 1580 1579 1580 1580 1580 1581 1581 1582 1582 1583 1583 1584 1585
1539 1541 1543 1545 1547 1549 1551 1552 1553 1554 1555 1557 1558 1560 1561 1563 1564 1566 1567 1568 1569 1571 1572 1573 1574 1575 1576 1576 1577 1578 1579 1578 1579 1578 1578 1578 1579 1579 1580 1580 1581 1581 1582
1537 1540 1542 1544 1545 1547 1549 1550 1551 1552 1554 1555 1556 1557 1558 1560 1561 1562 1564 1565 1566 1567 1569 1570 1571 1572 1573 1574 1574 1575 1575 1576 1576 1576 1575 1575 1576 1576 1577 1577 1577 1578 1579
1535 1538 1540 1542 1543 1545 1546 1548 1549 1550 1551 1552 1553 1554 1555 1557 1558 1559 1560 1561 1562 1564 1565 1566 1568 1568 1569 1570 1571 1571 1572 1572 1572 1572 1572 1572 1572 1573 1573 1573 1574 1574 1575